Flag for Swaziland Weather past 2 weeks in Mbabane, Swaziland

Now
77 °F

Passing clouds.


Feels Like: 78 °F
Forecast: 64 / 68 °F
Wind: 2 mph from North

Location: Maputo / Mavalane

Current Time: Jan 27, 2015 at 5:46:00 AM

Latest Report: Jan 27, 2015 at 4:00 AM


Visibility: N/A

Pressure: 29.89 "Hg

Humidity: 89%

Dew point: 73 °F

Location of MbabaneLocation

Historic Weather in Mbabane — Graph

°F

Mbabane temperature yesterday

Maximum temperature yesterday: 91 °F (at 11:00 AM)
Minimum temperature yesterday: 75 °F (at 5:00 AM)
Average temperature yesterday: 84 °F

Past Weeks' High & Low Weather Summary

 TemperatureHumidityPressure
High91 °F (Jan 13, 2:00 PM)100% (Jan 12, 4:00 AM)30.18 "Hg (Jan 12, 4:00 AM)
Low64 °F (Jan 17, 6:00 AM)43% (Jan 25, 12:00 PM)29.59 "Hg (Jan 16, 5:00 PM)
Average79 °F74%29.93 "Hg
* Reported Jan 12 4:00 AM — Jan 27 4:00 AM, Mbabane, Weather by CustomWeather, © 2014

Note: Actual official high and low records may vary slightly from our data, if they occured in-between our weather recording intervals... More about our weather records

Advertising

Mbabane weather history for previous 24 hours

 ConditionsComfort  
Time TempWeatherWind HumidityBarometerVisibility
4:00 AM
Jan 27
77 °FPassing clouds.2 mph89%29.89 "HgN/A
2:00 AM77 °FPassing clouds.3 mph94%29.89 "HgN/A
1:00 AM79 °FPassing clouds.6 mph89%29.89 "HgN/A
12:00 AM79 °FPassing clouds.7 mph84%29.89 "HgN/A
11:00 PM
Jan 26
81 °FPassing clouds.9 mph79%29.89 "HgN/A
10:00 PM81 °FPassing clouds.12 mph84%29.89 "HgN/A
9:00 PM81 °FPassing clouds.13 mph84%29.86 "HgN/A
8:00 PM81 °FPassing clouds.12 mph79%29.86 "HgN/A
7:00 PM82 °FPassing clouds.14 mph74%29.83 "HgN/A
6:00 PM84 °FPassing clouds.18 mph62%29.83 "HgN/A
5:00 PM86 °FScattered clouds.16 mph55%29.83 "HgN/A
4:00 PM86 °FScattered clouds.16 mph55%29.83 "HgN/A
3:00 PM91 °FScattered clouds.15 mph52%29.86 "HgN/A
2:00 PM91 °FScattered clouds.14 mph52%29.89 "HgN/A
1:00 PM91 °FPartly sunny.13 mph56%29.92 "HgN/A
12:00 PM90 °FPartly sunny.13 mph55%29.92 "HgN/A
11:00 AM91 °FPartly sunny.10 mph46%29.92 "HgN/A
10:00 AM90 °FPartly sunny.7 mph52%29.95 "HgN/A
8:00 AM84 °FPartly sunny.8 mph70%29.95 "HgN/A
7:00 AM81 °FPartly sunny.8 mph74%29.95 "HgN/A
6:00 AM75 °FPartly sunny.3 mph89%29.92 "HgN/A
5:00 AM75 °FScattered clouds.5 mph89%29.92 "HgN/A
Weather by CustomWeather, © 2014

See weather overviewHow to use our weather pages